sat.trackr.live / text

‹ back to catalog

STARLINK-5111

NORAD 56146 · 2023-046BG

PAYLOAD ACTIVE UNKNOWN

§ Identity

Operator
Country
US
Launch date
2023-03-29
Launch site
AFETR
Launch vehicle
Mass (kg)
RCS (m²)

Purposes: comms

External: N2YO · Heavens-Above · Gunter

§ Orbital elements

Epoch: 2026-09-19T23:27:31.037184Z

Period
94.27 min
Inclination
43.0016°
Eccentricity
0.0001606
Mean motion
15.27576746 rev/d
Perigee alt
482.0 km
Apogee alt
484.2 km
Semi-major
6,861.2 km
B*
2.0468e-5
RAAN
129.7734°
Arg perigee
245.5589°
Mean anomaly
114.5095°
Rev number
19,191

§ Raw data

STARLINK-51111 56146U 23046BG  26262.97744256  .00000301  00000+0  20468-4 0  99962 56146  43.0016 129.7734 0001606 245.5589 114.5095 15.27576746191918

JSON: /api/v1/satellites/56146 · /tle

For live sub-satellite position, see the globe view (requires WebGL).

§ Visibility from observer

Set your observer location to see the next 7 days of passes ≥ 10°. The values pass through the URL so the page stays shareable.

No JS? Fill the form by hand. The geolocation button needs JavaScript.